www.pogodaiklimat.ru

Погода и климат >> Архив погоды >> Россия >> Хабаровский край >> Джаоре


ПОГОДА в Джаоре

  • Прогноз погоды в Джаоре
  • Монитор погоды в Джаоре

АРХИВ ПОГОДЫ в Джаоре

Время (UTC), дата Ветер
(напр.,м/с)
 
Видим.   Явления Облачность Т
(С)
Тd
(С)
f
(%)
Тe
(С)
Тes
(С)
Комфортность P
(гПа)
Po
(гПа)
Тmin
(С)
Tmax
(С)
R
(мм)
R24
(мм)
S
(см)
15 9.07 ЮВ 2 10 км 10/6 600 м
[Cb cap Ac cuf Ci ing]
+10.7 +8.2 85 +9 +9 1016.9 1016.3
18 9.07 Ю 2 10 км 10/10 600 м
[Cb cap]
+9.8 +7.6 86 +8 +8 1016.7 1016.1
21 9.07 Ю 2 20 км 10/10 600 м
[Cb cap]
+10.5 +8.0 84 +9 +9 1016.8 1016.2 +9.5
00 10.07 Ю 4 20 км 10/10 600 м
[Cb cap]
+12.9 +10.4 85 +11 +11 1016.5 1015.9
03 10.07 ЮВ 4 20 км 10/6 600 м
[Cb cap Ac cuf Ci ing]
+16.4 +11.8 74 +16 +18 1015.7 1015.1
06 10.07 Ю 5-10
{10}
20 км 10/4 600 м
[Cb cap Ac cuf Ci ing]
+17.2 +12.6 74 +17 +18 1014.3 1013.7
09 10.07 Ю 5
{12}
20 км 10/3 600 м
[Sc Ac trans Ci fib]
+17.2 +12.6 74 +17 +17 1013.4 1012.8 +17.5
15 10.07 Ю 3 20 км 10/3 600 м
[Sc Ac trans Ci fib]
+14.3 +12.3 88 +13 +13 1012.7 1012.1
18 10.07 Ю 2 20 км 10/3 600 м
[Sc Ac trans Ci fib]
+13.8 +11.2 84 +13 +13 1011.8 1011.2
21 10.07 Ю 2 20 км 10/3 600 м
[Sc Ac trans Ci fib]
+14.3 +11.9 85 +14 +15 1011.5 1010.9 +13.2
00 11.07 Ю 4 20 км 10/1 600 м
[Sc Ac trans Ci fib]
+16.8 +12.9 78 +16 +20 1010.6 1010.0
06 11.07 Ю 5 20 км 10/0 600 м
[Ac trans Cs]
+16.7 +13.1 79 +16 +18 1009.2 1008.6
09 11.07 Ю 2 20 км 10/3 600 м
[Sc Ac trans Cs]
+15.4 +12.8 84 +15 +16 1009.0 1008.4 +15.4
12 11.07 Ю 2 20 км 10/3 600 м
[Sc Ac trans Cs]
+14.4 +12.7 90 +14 +14 1009.0 1008.4
15 11.07 Ю 2 20 км 10/3 600 м
[Sc Ac trans Ci fib]
+14.0 +12.5 91 +13 +13 1008.8 1008.2
21 11.07 ЮВ 2 20 км 10/10 600 м
[Cb cap]
+14.6 +12.5 87 +14 +14 1009.3 1008.7 +12.9
03 12.07 Ю 3 20 км 10/10 600 м
[Sc]
+17.2 +13.5 79 +17 +17 1009.4 1008.8
06 12.07 Ю 1 20 км 10/10 600 м
[Sc]
+17.8 +13.5 76 +19 +19 1008.9 1008.3
09 12.07 СЗ 1 20 км 10/10 600 м
[Sc]
+17.7 +14.2 80 +19 +19 1009.0 1008.4 +18.0
12 12.07 З 2 20 км 10/10 600 м
[Sc]
+16.8 +14.4 86 +17 +17 1009.8 1009.2
15 12.07 ЮВ 1 н/о н/о +15.3 +11.7 79 +16 +16 1009.7 1009.1
18 12.07 Ю 1 20 км 10/6 600 м
[Sc Ci fib]
+8.8 +7.8 93 +8 +8 1010.3 1009.7
21 12.07 СВ 1 20 км 10/3 600 м
[Sc Ci fib]
+12.4 +11.3 93 +12 +14 1010.7 1010.1 +8.5
00 13.07 СВ 3 10 км 10/6 600 м
[Sc Ci fib]
+13.4 +11.7 89 +12 +15 1011.4 1010.8
03 13.07 В 3 20 км 6/3 600 м
[Sc Ac trans Ci fib]
+17.1 +13.0 77 +17 +24 1011.2 1010.6
09 13.07 В 6 10 км 10/0
[Ac und]
+16.9 +12.5 75 +16 +16 1010.3 1009.7 +18.6
12 13.07 В 5 10 км 10/4 600 м
[Sc Ac trans Ci fib]
+13.8 +11.5 86 +12 +12 1011.8 1011.2
15 13.07 ЮВ 2 10 км 10/4 600 м
[Sc Ac trans Ci fib]
+12.9 +11.1 89 +12 +12 1012.0 1011.4
18 13.07 Ю 1 10 км 10/10 600 м
[Cb cap]
+12.0 +10.5 91 +12 +12 1012.2 1011.6
21 13.07 ЮЗ 2 20 км 10/10 600 м
[Sc]
+12.3 +11.1 92 +11 +11 1012.7 1012.1 +12.0
03 14.07 Ю 3 20 км 10/4 600 м
[Sc Ac trans Ci fib]
+19.7 +13.9 69 +22 +26 комфорт 1012.5 1011.9
06 14.07 Ю 3 20 км 4/3 600 м
[Cu Sc Ci fib]
+22.6 +14.4 60 +26 +31 жарко 1011.8 1011.2
09 14.07 Ю 3 20 км 4/3 600 м
[Sc Ci fib]
+21.2 +14.5 66 +24 +25 комфорт 1011.7 1011.1 +22.6
12 14.07 Ю 3 20 км 4/3 600 м
[Sc Ci fib]
+17.4 +14.0 80 +17 +17 1012.6 1012.0
21 14.07 Ю 3 20 км 8/3 600 м
[Sc Ac trans Ci fib]
+17.3 +14.2 82 +17 +18 1012.9 1012.3 +15.8
06 15.07 Ю 6-10
{11}
20 км 10/3 600 м
[Sc Ac trans Ci fib]
+19.3 +14.4 73 +20 +22 1011.6 1011.0
09 15.07 Ю 4
{13}
20 км 10/3 600 м
[Sc Ac trans Ci fib]
+19.8 +13.6 67 +22 +22 комфорт 1011.4 1010.8 +20.8
21 15.07 Ю 4 20 км 10/6 600 м
[Cb cap Ac trans Ci fib]
+16.8 +12.3 75 +16 +17 1011.0 1010.4 +15.5
03 16.07 Ю 6-11
{13}
20 км 8/4 600 м
[Cb cap Ac cuf Ci ing]
+19.8 +15.0 74 +22 +24 комфорт 1010.1 1009.5
06 16.07 Ю 5-11
{12}
20 км 6/4 600 м
[Cb cap Ci ing]
+19.1 +15.0 77 +20 +23 1008.8 1008.2

 

Местоположение метеостанции Джаоре (Хабаровский край, Россия): широта 52.67 долгота 141.20 высота над уровнем моря 5 м.

В архиве по умолчанию представлена погода в Джаоре за последнюю неделю. Архивные данные за месяц целиком и за предыдущие месяцы, начиная с января 2011 года, Вы можете получить, выбрав интересующий диапазон дат из раскрывающегося списка и нажав кнопку "Ввод!".


*Определитесь, кто Вы:
робот инопланетянин человек

Внимание! Время в таблицах - всемирное. Для получения местного времени необходимо прибавить поправку, которая равна 10 ч.

Смотрите также архив погоды в соседних городах и на ближайших метеорологических станциях:

Погода в Погибях (Сахалинская область, Россия) (57 км)
Погода в Богородском (Хабаровский край, Россия) (63 км)
Погода в Николаевск-на-Амуре (Хабаровский край, Россия) (63 км)
Погода в Байдукове (Хабаровский край, Россия) (71 км)
Погода в Вале (Сахалинская область, Россия) (128 км)
Погода в Мариинском (Хабаровский край, Россия) (129 км)
Погода в Москальво (Сахалинская область, Россия) (132 км)
Погода в Оха (Сахалинская область, Россия) (146 км)
Погода в Ногликах (Сахалинская область, Россия) (154 км)
Погода в Литке (Хабаровский край, Россия) (154 км)

Пояснения к столбцам:

Ветер - указаны скорость ветра в м/с - средняя за 10 мин, порывы в срок и между сроками (в фигурных скобках) и направление, откуда дует ветер: С - северный, СВ - северо-восточный, В - восточный, ЮВ - юго-восточный, Ю - южный, ЮЗ - юго-западный, З - западный, СЗ - северо-западный.
Видимость - горизонтальная дальность видимости в метрах или километрах. При видимости от 1 до 10 км при отсутствии осадков обычно наблюдается дымка, при ухудшении видимости до 1 км и менее - туман. В сухую погоду видимость может ухудшаться дымом, пылью или мглою.
Явления - указаны атмосферные явления, наблюдавшиеся в срок или в последний час перед сроком; фигурными скобками обозначены явления, наблюдавшиеся между сроками (за 1-3 часа до срока); квадратными скобками обозначены град или гололедные отложения с указанием их диаметра в мм.
Облачность - указаны через наклонную черту общая и нижняя облачность в баллах и высота нижней границы облаков в метрах; квадратными скобками обозначены формы облаков: Ci - перистые, Cs - перисто-слоистые, Cc - перисто-кучевые, Ac - высококучевые, As - высокослоистые, Sc - слоисто-кучевые, Ns - слоисто-дождевые, Cu - кучевые, Cb - кучево-дождевые. Подробнее классификацию облаков см. в Атласе облаков (PDF).
T - Температура воздуха - температура, измеренная на высоте 2 м над землей.
Td - Температура точки росы - температура, при понижении до которой содержащийся в воздухе водяной пар достигнет насыщения.
f - Относительная влажность воздуха - влажноcть воздуха, измеренная на высоте 2 м над землей.
Te - Эффективная температура - температура, которую ощущает одетый по сезону человек в тени. Характеристика душности погоды. При расчете учитывается влияние влажности воздуха и скорости ветра на теплоощущения человека.
Tes - Эффективная температура на солнце - температура, которую ощущает человек, с поправкой на солнечный нагрев. Характеристика знойности погоды. Зависит от высоты солнца над горизонтом, облачности и скорости ветра. Ночью, в пасмурную погоду, а также при ветре 12 м/с и более поправка равна нулю.
P - Атмосферное давление - приведенное к уровню моря атмосферное давление.
Po - Атмосферное давление - измеренное на уровне метеостанции атмосферное давление.
Tmin - Минимальная температура - минимум температуры воздуха на высоте 2 м над землей.
Tmax - Максимальная температура - максимум температуры воздуха на высоте 2 м над землей.
R - Количество осадков - Количество выпавших осадков за период времени, мм. При наведении курсора мыши на число - период времени, за который выпало указанное количество осадков.
R24 - Количество осадков - Количество выпавших осадков за 24 часа, мм.
S - Снежный покров - Высота снежного покрова, см. При наведении курсора мыши на число - состояние снежного покрова и степень покрытия местности в баллах.